This is the latest recevied weather packets stored in our database for station/object K7SKM. If no packets are shown the sender has not sent any weather packets the latest 10 day(s).
| Time | Temp. | Humidity | Pressure | Rain* | Wind** | Luminosity | Snow |
|---|---|---|---|---|---|---|---|
| 1777303566 | 11.11° C | 68% | 1020.8 hPa | 0 mm | - | 88 W/m² | - |
| 1777303263 | 11.11° C | 68% | 1020.8 hPa | 0 mm | - | 95 W/m² | - |
| 1777302961 | 11.11° C | 68% | 1021 hPa | 0 mm | - | 93 W/m² | - |
| 1777302656 | 11.11° C | 68% | 1020.8 hPa | 0 mm | - | 78 W/m² | - |
| 1777302356 | 10.56° C | 69% | 1020.4 hPa | 0 mm | - | 97 W/m² | - |
| 1777302053 | 10.56° C | 70% | 1020.6 hPa | 0 mm | - | 86 W/m² | - |
| 1777301751 | 10.56° C | 70% | 1020.7 hPa | 0 mm | - | 64 W/m² | - |
| 1777301447 | 10.56° C | 71% | 1020.8 hPa | 0 mm | - | 40 W/m² | - |
| 1777301145 | 10° C | 71% | 1020.7 hPa | 0 mm | - | 26 W/m² | - |
| 1777300841 | 10° C | 72% | 1020.5 hPa | 0 mm | - | 27 W/m² | - |
| 1777300540 | 10° C | 72% | 1020.4 hPa | 0 mm | - | 32 W/m² | - |
| 1777300237 | 10° C | 72% | 1020.4 hPa | 0 mm | - | 23 W/m² | - |
| 1777299933 | 10° C | 72% | 1020.3 hPa | 0 mm | - | 13 W/m² | - |
| 1777299630 | 10° C | 72% | 1020.4 hPa | 0 mm | - | 13 W/m² | - |
| 1777299328 | 10° C | 73% | 1020.5 hPa | 0 mm | - | 13 W/m² | - |
| 1777299025 | 10° C | 72% | 1020.5 hPa | 0 mm | - | 12 W/m² | - |
| 1777298723 | 10° C | 72% | 1020.5 hPa | 0 mm | - | 12 W/m² | - |
| 1777298419 | 10° C | 73% | 1020.5 hPa | 0 mm | - | 12 W/m² | - |
| 1777298115 | 10° C | 73% | 1020.2 hPa | 0 mm | - | 13 W/m² | - |
| 1777297809 | 10° C | 73% | 1020.2 hPa | 0 mm | - | 18 W/m² | - |
| 1777297508 | 10° C | 73% | 1020.1 hPa | 0 mm | - | 11 W/m² | - |
| 1777297204 | 9.44° C | 73% | 1020 hPa | 0 mm | - | 7 W/m² | - |
| 1777296901 | 9.44° C | 74% | 1020.1 hPa | 0 mm | - | 6 W/m² | - |
| 1777296597 | 9.44° C | 74% | 1019.9 hPa | 0 mm | - | 6 W/m² | - |
| 1777296268 | 9.44° C | 75% | 1020 hPa | 0 mm | - | 5 W/m² | - |
* Rain latest hour (hover to see other rain measurements)
** Current wind speed in m/s (hover to see current wind gust speed)